This is the latest recevied weather packets stored in our database for station/object BAGASKAR. If no packets are shown the sender has not sent any weather packets the latest 10 day(s).
| Time | Temp. | Humidity | Pressure | Rain* | Wind** | Luminosity | Snow |
|---|---|---|---|---|---|---|---|
| 1778125645 | 5° C | 58% | 1015.3 hPa | - | - | - | - |
| 1778124445 | 5° C | 58% | 1015.2 hPa | - | - | - | - |
| 1778123245 | 5° C | 58% | 1015.1 hPa | - | - | - | - |
| 1778122044 | 5° C | 59% | 1014.9 hPa | - | - | - | - |
| 1778120845 | 5° C | 60% | 1015 hPa | - | - | - | - |
| 1778119644 | 5° C | 58% | 1015 hPa | - | - | - | - |
| 1778118444 | 5° C | 57% | 1015 hPa | - | - | - | - |
| 1778117244 | 5° C | 54% | 1014.9 hPa | - | - | - | - |
| 1778116044 | 5° C | 55% | 1014.9 hPa | - | - | - | - |
| 1778114844 | 5.56° C | 54% | 1014.7 hPa | - | - | - | - |
| 1778113644 | 5.56° C | 53% | 1014.8 hPa | - | - | - | - |
| 1778112444 | 5.56° C | 58% | 1014.7 hPa | - | - | - | - |
| 1778111244 | 5.56° C | 58% | 1014.7 hPa | - | - | - | - |
| 1778110044 | 5.56° C | 57% | 1014.7 hPa | - | - | - | - |
| 1778108845 | 5.56° C | 62% | 1014.7 hPa | - | - | - | - |
| 1778107643 | 5.56° C | 58% | 1014.7 hPa | - | - | - | - |
| 1778105244 | 6.11° C | 63% | 1014.5 hPa | - | - | - | - |
| 1778104044 | 6.11° C | 65% | 1014.4 hPa | - | - | - | - |
| 1778102844 | 5° C | 66% | 1014.3 hPa | - | - | - | - |
| 1778101643 | 5° C | 80% | 1014.2 hPa | - | - | - | - |
| 1778099243 | 5° C | 85% | 1014.2 hPa | - | - | - | - |
| 1778098043 | 5.56° C | 100% | 1014.2 hPa | - | - | - | - |
| 1778096843 | 5° C | 100% | 1014.2 hPa | - | - | - | - |
| 1778095643 | 5° C | 100% | 1014.2 hPa | - | - | - | - |
| 1778094443 | 5.56° C | 98% | 1014.2 hPa | - | - | - | - |
* Rain since midnight (hover to see other rain measurements)
** Current wind speed in m/s (hover to see current wind gust speed)